When you browse on this site, cookies collect data to enhance your experience and personalize the content and advertising you see.
Visit our Privacy Policy to learn more. By continuing to use the site, you agree to this use of cookies and data.
  • En España
  • Lista de países
  • Para 7 días
  • Temperatura del agua
  • Mapa Satelital
  • El tiempo en el mapa
  • Informadores
  • user-avatar
    Iniciar sesión

    Tiempo cada hora Rangpur

    Hoy, 23 Enero, Miércoles

    Tiempo Temperatura Precipitaciones Viento Presión Humedad
    00:00 +20°C° 0 mm 2 mps 758 mmHg 58%
    01:00 +20°C° 0 mm 2 mps 758 mmHg 59%
    02:00 +19°C° 0 mm 2 mps 758 mmHg 60%
    03:00 +19°C° 0 mm 2 mps 758 mmHg 61%
    04:00 +19°C° 0 mm 2 mps 759 mmHg 61%
    05:00 +18°C° 0 mm 2 mps 759 mmHg 61%
    06:00 +18°C° 0 mm 2 mps 759 mmHg 63%
    07:00 +19°C° 0 mm 2 mps 759 mmHg 59%
    08:00 +20°C° 0 mm 2 mps 759 mmHg 55%
    09:00 +21°C° 0 mm 3 mps 760 mmHg 51%
    10:00 +24°C° 0 mm 3 mps 760 mmHg 46%
    11:00 +26°C° 0 mm 3 mps 759 mmHg 42%
    12:00 +28°C° 0 mm 3 mps 759 mmHg 37%
    13:00 +28°C° 0 mm 2 mps 758 mmHg 35%
    14:00 +29°C° 0 mm 1 mps 758 mmHg 33%
    15:00 +28°C° 0 mm 0 mps 757 mmHg 30%
    16:00 +29°C° 0 mm 1 mps 757 mmHg 32%
    17:00 +28°C° 0 mm 1 mps 757 mmHg 34%
    18:00 +27°C° 0 mm 1 mps 757 mmHg 36%
    19:00 +26°C° 0 mm 1 mps 757 mmHg 37%
    20:00 +25°C° 0 mm 1 mps 758 mmHg 39%
    21:00 +25°C° 0 mm 1 mps 758 mmHg 41%
    22:00 +24°C° 0 mm 1 mps 758 mmHg 43%
    23:00 +24°C° 0 mm 2 mps 758 mmHg 45%

    Mañana, 24 Enero, Jueves

    Tiempo Temperatura Precipitaciones Viento Presión Humedad
    00:00 +23°C° 0 mm 2 mps 758 mmHg 47%
    01:00 +21°C° 0 mm 2 mps 758 mmHg 49%
    02:00 +21°C° 0 mm 2 mps 758 mmHg 52%
    03:00 +20°C° 0 mm 2 mps 758 mmHg 55%
    04:00 +19°C° 0 mm 2 mps 758 mmHg 56%
    05:00 +19°C° 0 mm 2 mps 758 mmHg 57%
    06:00 +19°C° 0 mm 2 mps 758 mmHg 59%
    07:00 +19°C° 0 mm 2 mps 759 mmHg 56%
    08:00 +20°C° 0 mm 3 mps 760 mmHg 54%
    09:00 +21°C° 0 mm 3 mps 760 mmHg 52%
    10:00 +24°C° 0 mm 3 mps 760 mmHg 47%
    11:00 +25°C° 0 mm 3 mps 760 mmHg 43%
    12:00 +26°C° 0 mm 2 mps 760 mmHg 38%
    13:00 +26°C° 0 mm 2 mps 759 mmHg 38%
    14:00 +27°C° 0 mm 2 mps 759 mmHg 37%
    15:00 +27°C° 0 mm 1 mps 758 mmHg 37%
    16:00 +26°C° 0 mm 1 mps 758 mmHg 38%
    17:00 +25°C° 0 mm 1 mps 758 mmHg 40%
    18:00 +24°C° 0 mm 1 mps 758 mmHg 42%
    19:00 +23°C° 0 mm 1 mps 759 mmHg 43%
    20:00 +23°C° 0 mm 1 mps 759 mmHg 44%
    21:00 +20°C° 0 mm 0 mps 759 mmHg 46%
    22:00 +22°C° 0 mm 1 mps 759 mmHg 47%
    23:00 +22°C° 0 mm 1 mps 759 mmHg 49%

    Pasado mañana, 25 Enero, Viernes

    Tiempo Temperatura Precipitaciones Viento Presión Humedad
    00:00 +21°C° 0 mm 1 mps 759 mmHg 51%
    01:00 +21°C° 0 mm 1 mps 759 mmHg 52%
    02:00 +19°C° 0 mm 2 mps 759 mmHg 54%
    03:00 +19°C° 0 mm 2 mps 758 mmHg 56%
    04:00 +18°C° 0 mm 2 mps 759 mmHg 58%
    05:00 +18°C° 0 mm 2 mps 759 mmHg 59%
    06:00 +17°C° 0 mm 2 mps 759 mmHg 61%
    07:00 +19°C° 0 mm 3 mps 760 mmHg 58%
    08:00 +20°C° 0 mm 4 mps 760 mmHg 55%
    09:00 +21°C° 0 mm 5 mps 761 mmHg 51%
    10:00 +23°C° 0 mm 5 mps 761 mmHg 46%
    11:00 +25°C° 0 mm 5 mps 760 mmHg 41%
    12:00 +27°C° 0 mm 5 mps 760 mmHg 36%
    13:00 +28°C° 0 mm 5 mps 759 mmHg 34%
    14:00 +28°C° 0 mm 4 mps 759 mmHg 32%
    15:00 +29°C° 0 mm 3 mps 758 mmHg 30%
    16:00 +28°C° 0 mm 3 mps 758 mmHg 33%
    17:00 +26°C° 0 mm 3 mps 759 mmHg 36%
    18:00 +25°C° 0 mm 3 mps 759 mmHg 39%
    19:00 +24°C° 0 mm 3 mps 759 mmHg 40%
    20:00 +22°C° 0 mm 3 mps 760 mmHg 42%
    21:00 +21°C° 0 mm 2 mps 760 mmHg 43%
    22:00 +21°C° 0 mm 2 mps 760 mmHg 43%
    23:00 +21°C° 0 mm 2 mps 759 mmHg 42%

    26 Enero, Sábado

    Tiempo Temperatura Precipitaciones Viento Presión Humedad
    00:00 +20°C° 0 mm 2 mps 759 mmHg 42%
    01:00 +20°C° 0 mm 2 mps 759 mmHg 43%
    02:00 +20°C° 0 mm 3 mps 759 mmHg 44%
    03:00 +20°C° 0 mm 3 mps 758 mmHg 45%
    04:00 +20°C° 0 mm 3 mps 759 mmHg 44%
    05:00 +20°C° 0 mm 3 mps 759 mmHg 44%
    06:00 +20°C° 0 mm 3 mps 759 mmHg 43%
    07:00 +21°C° 0 mm 4 mps 760 mmHg 42%
    08:00 +22°C° 0 mm 4 mps 761 mmHg 41%
    09:00 +22°C° 0 mm 5 mps 761 mmHg 39%
    10:00 +25°C° 0 mm 5 mps 761 mmHg 36%
    11:00 +26°C° 0 mm 6 mps 761 mmHg 32%
    12:00 +28°C° 0 mm 6 mps 761 mmHg 29%
    13:00 +28°C° 0 mm 5 mps 760 mmHg 28%
    14:00 +28°C° 0 mm 4 mps 759 mmHg 27%
    15:00 +29°C° 0 mm 4 mps 758 mmHg 26%
    16:00 +28°C° 0 mm 3 mps 759 mmHg 28%
    17:00 +27°C° 0 mm 2 mps 759 mmHg 29%
    18:00 +26°C° 0 mm 1 mps 759 mmHg 31%
    19:00 +26°C° 0 mm 1 mps 759 mmHg 32%
    20:00 +25°C° 0 mm 2 mps 760 mmHg 33%
    21:00 +25°C° 0 mm 2 mps 760 mmHg 34%
    22:00 +25°C° 0 mm 3 mps 760 mmHg 35%
    23:00 +24°C° 0 mm 3 mps 760 mmHg 37%

    27 Enero, Domingo

    Tiempo Temperatura Precipitaciones Viento Presión Humedad
    00:00 +23°C° 0 mm 4 mps 760 mmHg 38%
    01:00 +22°C° 0 mm 4 mps 759 mmHg 41%
    02:00 +21°C° 0 mm 3 mps 759 mmHg 44%
    03:00 +20°C° 0 mm 2 mps 759 mmHg 46%
    04:00 +20°C° 0 mm 2 mps 759 mmHg 47%
    05:00 +19°C° 0 mm 2 mps 759 mmHg 47%
    06:00 +19°C° 0 mm 2 mps 759 mmHg 48%
    07:00 +20°C° 0 mm 2 mps 760 mmHg 44%
    08:00 +21°C° 0 mm 2 mps 760 mmHg 40%
    09:00 +24°C° 0 mm 2 mps 761 mmHg 37%
    10:00 +25°C° 0 mm 2 mps 761 mmHg 34%
    11:00 +27°C° 0 mm 3 mps 761 mmHg 30%
    12:00 +29°C° 0 mm 3 mps 761 mmHg 27%
    13:00 +29°C° 0 mm 2 mps 760 mmHg 26%
    14:00 +30°C° 0 mm 2 mps 759 mmHg 25%
    15:00 +30°C° 0 mm 1 mps 758 mmHg 24%
    16:00 +29°C° 0 mm 1 mps 758 mmHg 25%
    17:00 +28°C° 0 mm 1 mps 758 mmHg 26%
    18:00 +27°C° 0 mm 1 mps 758 mmHg 28%
    19:00 +26°C° 0 mm 2 mps 758 mmHg 30%
    20:00 +25°C° 0 mm 2 mps 759 mmHg 32%
    21:00 +25°C° 0 mm 2 mps 759 mmHg 34%
    22:00 +24°C° 0 mm 2 mps 759 mmHg 34%
    23:00 +23°C° 0 mm 2 mps 759 mmHg 35%

    28 Enero, Lunes

    Tiempo Temperatura Precipitaciones Viento Presión Humedad
    00:00 +23°C° 0 mm 2 mps 759 mmHg 36%
    01:00 +21°C° 0 mm 2 mps 759 mmHg 35%
    02:00 +20°C° 0 mm 2 mps 759 mmHg 34%
    03:00 +20°C° 0 mm 2 mps 758 mmHg 33%
    04:00 +19°C° 0 mm 2 mps 758 mmHg 33%
    05:00 +19°C° 0 mm 2 mps 759 mmHg 33%
    06:00 +18°C° 0 mm 2 mps 759 mmHg 33%
    07:00 +19°C° 0 mm 2 mps 759 mmHg 32%
    08:00 +20°C° 0 mm 2 mps 760 mmHg 31%
    09:00 +21°C° 0 mm 2 mps 761 mmHg 30%
    10:00 +24°C° 0 mm 2 mps 761 mmHg 27%
    11:00 +26°C° 0 mm 2 mps 760 mmHg 25%
    12:00 +28°C° 0 mm 2 mps 760 mmHg 22%
    13:00 +28°C° 0 mm 2 mps 759 mmHg 22%
    14:00 +29°C° 0 mm 2 mps 758 mmHg 21%
    15:00 +29°C° 0 mm 2 mps 757 mmHg 21%
    16:00 +28°C° 0 mm 3 mps 757 mmHg 24%
    17:00 +27°C° 0 mm 3 mps 757 mmHg 27%
    18:00 +26°C° 0 mm 4 mps 757 mmHg 31%
    19:00 +25°C° 0 mm 4 mps 758 mmHg 34%
    20:00 +25°C° 0 mm 4 mps 758 mmHg 37%
    21:00 +23°C° 0 mm 4 mps 759 mmHg 40%
    22:00 +22°C° 0 mm 4 mps 759 mmHg 43%
    23:00 +22°C° 0 mm 4 mps 759 mmHg 46%
    Mostrar más